Flag for Canada Weather past 2 weeks in Coral Harbour, Nunavut Territory, Canada

Now
-31 °F

Snow flurries. Overcast.


Feels Like: -50 °F
Forecast: -36 / -24 °F
Wind: 7 mph from Northwest

Location: Coral Harbour

Current Time: Mar 6, 2015 at 9:52:37 AM

Latest Report: Mar 6, 2015 at 9:00 AM


Visibility: 12 mi

Pressure: 29.53 "Hg

Humidity: 67%

Dew point: -38 °F

Location of Coral HarbourLocation

Historic Weather in Coral Harbour — Graph

°F

Coral Harbour temperature yesterday

Maximum temperature yesterday: -24 °F (at 1:00 PM)
Minimum temperature yesterday: -38 °F (at 5:00 AM)
Average temperature yesterday: -31 °F

Past Weeks' High & Low Weather Summary

 TemperatureHumidityPressure
High-8 °F (Feb 28, 2:00 PM)77% (Feb 28, 4:00 PM)30.25 "Hg (Feb 28, 4:00 PM)
Low-38 °F (Feb 27, 6:00 AM)54% (Feb 22, 11:00 AM)29.25 "Hg (Mar 1, 12:00 AM)
Average-24 °F64%29.76 "Hg
* Reported Feb 19 8:00 AM — Mar 6 8:50 AM, Coral Harbour, Weather by CustomWeather, © 2015

Note: Actual official high and low records may vary slightly from our data, if they occured in-between our weather recording intervals... More about our weather records

Advertising

Coral Harbour weather history for previous 24 hours

 ConditionsComfort  
Time TempWeatherWind HumidityBarometerVisibility
8:50 AM
Fri, Mar 6
N/ASnow flurries.7 mphN/AN/A15 mi
8:00 AM-33 °FOvercast.9 mph60%29.53 "Hg15 mi
7:00 AM-35 °FPassing clouds.8 mph59%29.54 "Hg15 mi
6:00 AM-35 °FPassing clouds.9 mph66%29.54 "Hg15 mi
5:00 AM-36 °FPassing clouds.10 mph66%29.55 "Hg15 mi
4:00 AM-36 °FPassing clouds.13 mph66%29.56 "Hg15 mi
3:00 AM-33 °FPassing clouds.9 mph66%29.57 "Hg15 mi
2:00 AM-38 °FPassing clouds.10 mph58%29.58 "Hg15 mi
1:00 AM-38 °FPassing clouds.8 mph65%29.59 "Hg15 mi
12:00 AM-35 °FPassing clouds.5 mph66%29.60 "Hg15 mi
11:00 PM
Thu, Mar 5
-35 °FPassing clouds.No wind59%29.61 "Hg15 mi
10:00 PM-33 °FPassing clouds.3 mph66%29.62 "Hg15 mi
9:00 PM-33 °FPassing clouds.2 mph66%29.64 "Hg15 mi
8:00 PM-31 °FPassing clouds.8 mph67%29.64 "Hg15 mi
7:00 PM-29 °FPartly sunny.2 mph67%29.65 "Hg15 mi
6:00 PM-26 °FPartly sunny.5 mph67%29.64 "Hg15 mi
5:00 PM-24 °FPartly sunny.3 mph61%29.64 "Hg15 mi
4:00 PM-24 °FPartly sunny.5 mph61%29.64 "Hg15 mi
3:00 PM-24 °FPartly sunny.2 mph61%29.65 "Hg15 mi
2:00 PM-24 °FPartly sunny.No wind68%29.65 "Hg15 mi
1:00 PM-24 °FPartly sunny.No wind68%29.65 "Hg15 mi
12:00 PM-26 °FPartly sunny.3 mph67%29.65 "Hg15 mi
11:00 AM-27 °FPartly sunny.8 mph67%29.64 "Hg15 mi
10:00 AM-33 °FPassing clouds.8 mph60%29.64 "Hg15 mi
9:00 AM-35 °FPassing clouds.6 mph66%29.65 "Hg15 mi
Weather by CustomWeather, © 2015

See weather overviewHow to use our weather pages